Weather in Tokushima

Japan     34°03′47″N   134°31′11″E
temp.,
°C
wind,
m/s
gust,
m/s
humid.,
%
clouds,
%
prec.,
mm/h
press.,
hPa
HPBL,
m
1 december, wed
wed100:00+13nnw3896100 42.3 1005593
03:00+11wnw7138378 50.8 1005836
06:00+7wnw9167422 0.1 10091252
09:00+7wnw715636 0.1 10111382
12:00+9wnw815575 0.0 10111512
15:00+7wnw7166181 0.1 10131930
18:00+5wnw7166090 0.0 10161775
21:00+4wnw7155830 0.0 10171463
2 december, thu
thu200:00+3wnw7146024 0.0 10191356
03:00+3wnw6126415 0.0 10191063
06:00+3wnw49694 0.0 1020510
09:00+6wnw46592 0.0 1021812
12:00+9nnw34512 0.0 10191012
15:00+9se235427 0.0 10191254
18:00+5nw11786 0.0 102065
21:00+5w237935 0.0 102178
3 december, fri
fri300:00+4w337725 0.0 102190
03:00+4w23750 0.0 101959
06:00+4wsw23720 0.0 102052
09:00+8wsw12570 0.0 1020196
12:00+12e134547 0.0 10181307
15:00+12n025781 0.0 1016965
18:00+9ssw227483 0.1 1018100
21:00+7w238084 0.1 101862
4 december, sat
sat400:00+6w34874 0.3 1018106
03:00+7nw3787100 0.7 1018655
06:00+5wnw4108137 0.2 1019833
09:00+7wnw6136550 0.2 10211551
12:00+9nw7125545 0.0 10201652
15:00+9nw7135334 0.0 10201751
18:00+7nw7135835 0.0 10221351
21:00+7nw6126740 0.0 10231144
5 december, sun
sun500:00+6nw5117243 0.0 1024793
03:00+6nnw598083 0.2 1025821
06:00+5nnw487798 0.1 1027553
09:00+6n467084 0.1 10291057
12:00+7n566031 0.0 10281232
15:00+8nnw466113 0.0 10271076
18:00+5n247335 0.0 1028242
21:00+4nw22795 0.0 1029133